Starlink 11204

operational
NORAD ID: 60931 Int'l Des: 2024-155 Owner: SPXS Country: US Constellation: starlink
LEOCIRCULAR

关于 Starlink 11204

正在加载描述...

实时位置

正在加载3D地球...

即将过境

高度历史

Altitude vs Time

uPlot chart will show altitude changes over time

两行轨道根数

1 60931U 24155H 25308.06511706 -.00000080 00000-0 42032-5 0 9995
2 60931 53.1595 240.3855 0001444 95.7419 264.3763 15.69710802 68671
Epoch: Nov 4, 2025 • Age: 9 hours

当前状态

高度 361.3 km
速度 7.69 km/s
星下点 -3.48°S, 31.28°E
发射日期 Aug 31, 2024
运行时间 1.1 years
类型 internet

技术详情

分类 Payload
质量 960.00 kg
干质量 910.00 kg
总质量 960.00 kg
长度 0.30 m
直径 4.10 m
跨度 29.00 m
形状 Box + pan
制造商 SPXS
平台类型 Starlink V2MD
阶段状态 In Orbit
所有者/国家 SPXS/US

大型星座

Loading constellations...